Change the Weather History Date:

Tuesday, December 4, 2012

  Actual Average (KAZE) Record (KAZE)
Temperature  
Mean Temperature 66 °F -  
Max Temperature 77 °F 60 °F 91 °F (2014)
Min Temperature 55 °F 40 °F 56 °F (2014)
Cooling Degree Days 1    
Growing Degree Days 16 (Base 50)    
Moisture  
Dew Point 60 °F    
Average Humidity 87    
Maximum Humidity 100    
Minimum Humidity 54    
Precipitation  
Precipitation 0.00 in - - ()
Sea Level Pressure  
Sea Level Pressure 30.28 in    
Wind  
Wind Speed 2 mph (South)    
Max Wind Speed 8 mph    
Max Gust Speed -    
Visibility 8 miles    
Events Fog    
Averages and records for this station are not official NWS values.
T = Trace of Precipitation, MM = Missing Value Source: NWS Daily Summary

Daily Weather History Graph

Daily Weather History Graph

Search for Another Location

Airport or City:

Trip Planner

Search our weather history database for the weather conditions in past years. The results will help you decide how hot, cold, wet, or windy it might be!

Date:

Astronomy

Dec. 04, 2012 Rise Set
Actual Time 7:15 AM EST 5:24 PM EST
Civil Twilight 6:48 AM EST 5:51 PM EST
Nautical Twilight 6:18 AM EST 6:21 PM EST
Astronomical Twilight 5:48 AM EST 6:51 PM EST
Moon 10:57 PM EST (12/4) 11:20 AM EST (12/4)
Length of Visible Light 11h 02m
Length of Day
10h 08m
Waning Gibbous, 69% of the Moon is Illuminated
Dec 4
Waning Gibbous
Dec 6
Last Quarter
Dec 13
New
Dec 20
First Quarter
Dec 28
Full

Hourly Weather History & Observations

Time (EST) Temp. Dew Point Humidity Pressure Visibility Wind Dir Wind Speed Gust Speed Precip Events Conditions
12:15 AM 60.8 °F 59.0 °F 94% 30.29 in 10.0 mi SSE 3.5 mph - N/A   Clear
12:35 AM 60.8 °F 59.0 °F 94% 30.29 in 10.0 mi Calm Calm - N/A   Clear
12:55 AM 59.0 °F 55.4 °F 88% 30.28 in 10.0 mi Calm Calm - N/A   Clear
1:15 AM 55.4 °F 55.4 °F 100% 30.28 in 10.0 mi Calm Calm - N/A   Clear
1:35 AM 55.4 °F 55.4 °F 100% 30.28 in 10.0 mi Calm Calm - N/A   Clear
1:55 AM 55.4 °F 55.4 °F 100% 30.28 in 7.0 mi Calm Calm - N/A   Clear
2:15 AM 57.2 °F 55.4 °F 94% 30.28 in 10.0 mi Calm Calm - N/A   Clear
2:35 AM 59.0 °F 57.2 °F 94% 30.28 in 7.0 mi SSE 3.5 mph - N/A   Scattered Clouds
2:55 AM 59.0 °F 59.0 °F 100% 30.28 in 7.0 mi South 3.5 mph - N/A   Mostly Cloudy
3:15 AM 60.8 °F 60.8 °F 100% 30.28 in 0.8 mi SSE 3.5 mph - N/A   Overcast
3:35 AM 60.8 °F 59.0 °F 94% 30.27 in 0.2 mi South 3.5 mph - N/A Fog Fog
3:55 AM 60.8 °F 59.0 °F 94% 30.28 in 0.2 mi Calm Calm - N/A Fog Fog
4:15 AM 59.0 °F 59.0 °F 100% 30.28 in 0.5 mi Calm Calm - N/A Fog Fog
4:35 AM 59.0 °F 59.0 °F 100% 30.28 in 0.5 mi Calm Calm - N/A Fog Fog
4:55 AM 59.0 °F 59.0 °F 100% 30.28 in 0.5 mi Calm Calm - N/A Fog Fog
5:15 AM 59.0 °F 59.0 °F 100% 30.28 in 0.8 mi Calm Calm - N/A   Overcast
5:35 AM 59.0 °F 59.0 °F 100% 30.28 in 4.0 mi Calm Calm - N/A   Overcast
5:55 AM 59.0 °F 59.0 °F 100% 30.29 in 2.0 mi Calm Calm - N/A   Overcast
6:15 AM 59.0 °F 59.0 °F 100% 30.30 in 4.0 mi Calm Calm - N/A   Overcast
6:35 AM 59.0 °F 57.2 °F 94% 30.30 in 4.0 mi Calm Calm - N/A   Overcast
7:15 AM 59.0 °F 59.0 °F 100% 30.32 in 7.0 mi Calm Calm - N/A   Overcast
7:35 AM 59.0 °F 59.0 °F 100% 30.32 in 0.2 mi Calm Calm - N/A Fog Fog
7:55 AM 60.8 °F 60.8 °F 100% 30.33 in 0.2 mi Calm Calm - N/A Fog Fog
8:15 AM 60.8 °F 60.8 °F 100% 30.33 in 0.2 mi Calm Calm - N/A Fog Fog
8:35 AM 60.8 °F 60.8 °F 100% 30.34 in 0.5 mi SSW 3.5 mph - N/A Fog Fog
8:55 AM 62.6 °F 62.6 °F 100% 30.35 in 5.0 mi SSW 3.5 mph - N/A   Overcast
9:15 AM 62.6 °F 62.6 °F 100% 30.35 in 7.0 mi Calm Calm - N/A   Overcast
9:35 AM 62.6 °F 62.6 °F 100% 30.35 in 7.0 mi South 3.5 mph - N/A   Overcast
9:55 AM 64.4 °F 64.4 °F 100% 30.36 in 7.0 mi South 4.6 mph - N/A   Overcast
10:15 AM 64.4 °F 64.4 °F 100% 30.35 in 10.0 mi SSW 3.5 mph - N/A   Overcast
10:35 AM 66.2 °F 64.4 °F 94% 30.35 in 10.0 mi Calm Calm - N/A   Overcast
10:55 AM 68.0 °F 64.4 °F 88% 30.35 in 10.0 mi South 3.5 mph - N/A   Overcast
11:15 AM 69.8 °F 64.4 °F 83% 30.34 in 10.0 mi SSW 3.5 mph - N/A   Overcast
11:55 AM 71.6 °F 62.6 °F 73% 30.33 in 10.0 mi SW 6.9 mph - N/A   Overcast
12:15 PM 73.4 °F 62.6 °F 69% 30.31 in 10.0 mi WSW 8.1 mph - N/A   Overcast
12:35 PM 73.4 °F 62.6 °F 69% 30.30 in 10.0 mi SSW 6.9 mph - N/A   Overcast
12:55 PM 73.4 °F 62.6 °F 69% 30.30 in 10.0 mi SSW 8.1 mph - N/A   Overcast
1:15 PM 73.4 °F 62.6 °F 69% 30.28 in 10.0 mi SSW 5.8 mph - N/A   Overcast
1:35 PM 73.4 °F 62.6 °F 69% 30.28 in 10.0 mi SW 5.8 mph - N/A   Overcast
1:55 PM 75.2 °F 62.6 °F 65% 30.27 in 10.0 mi South 4.6 mph - N/A   Overcast
2:15 PM 77.0 °F 59.0 °F 54% 30.26 in 10.0 mi WSW 6.9 mph - N/A   Mostly Cloudy
2:35 PM 75.2 °F 60.8 °F 61% 30.26 in 10.0 mi SW 4.6 mph - N/A   Scattered Clouds
2:55 PM 77.0 °F 60.8 °F 57% 30.25 in 10.0 mi Calm Calm - N/A   Scattered Clouds
3:15 PM 77.0 °F 60.8 °F 57% 30.25 in 10.0 mi SSW 8.1 mph - N/A   Scattered Clouds
3:35 PM 77.0 °F 60.8 °F 57% 30.25 in 10.0 mi SSW 8.1 mph - N/A   Scattered Clouds
3:55 PM 73.4 °F 60.8 °F 65% 30.25 in 10.0 mi South 4.6 mph - N/A   Scattered Clouds
4:15 PM 73.4 °F 60.8 °F 65% 30.25 in 10.0 mi Calm Calm - N/A   Clear
4:35 PM 73.4 °F 60.8 °F 65% 30.25 in 10.0 mi SE 3.5 mph - N/A   Clear
4:55 PM 71.6 °F 60.8 °F 69% 30.25 in 10.0 mi SSE 3.5 mph - N/A   Scattered Clouds
5:15 PM 71.6 °F 60.8 °F 69% 30.25 in 10.0 mi Calm Calm - N/A   Scattered Clouds
5:35 PM 68.0 °F 60.8 °F 78% 30.25 in 10.0 mi SE 3.5 mph - N/A   Clear
5:55 PM 68.0 °F 60.8 °F 78% 30.25 in 10.0 mi Calm Calm - N/A   Clear
6:15 PM 64.4 °F 60.8 °F 88% 30.25 in 10.0 mi Calm Calm - N/A   Clear
6:35 PM 62.6 °F 60.8 °F 94% 30.25 in 10.0 mi Calm Calm - N/A   Clear
6:55 PM 62.6 °F 59.0 °F 88% 30.25 in 10.0 mi Calm Calm - N/A   Clear
7:15 PM 62.6 °F 59.0 °F 88% 30.25 in 10.0 mi Calm Calm - N/A   Clear
7:35 PM 60.8 °F 59.0 °F 94% 30.26 in 10.0 mi Calm Calm - N/A   Clear
7:55 PM 60.8 °F 59.0 °F 94% 30.25 in 10.0 mi Calm Calm - N/A   Clear
8:15 PM 60.8 °F 59.0 °F 94% 30.25 in 10.0 mi Calm Calm - N/A   Clear
8:35 PM 62.6 °F 59.0 °F 88% 30.26 in 10.0 mi SSE 4.6 mph - N/A   Clear
8:55 PM 64.4 °F 59.0 °F 83% 30.26 in 10.0 mi SSE 3.5 mph - N/A   Clear
9:15 PM 64.4 °F 59.0 °F 83% 30.26 in 10.0 mi SSW 4.6 mph - N/A   Clear
9:35 PM 62.6 °F 59.0 °F 88% 30.26 in 10.0 mi South 3.5 mph - N/A   Clear
9:55 PM 62.6 °F 59.0 °F 88% 30.26 in 10.0 mi South 3.5 mph - N/A   Clear
10:15 PM 62.6 °F 59.0 °F 88% 30.26 in 10.0 mi South 3.5 mph - N/A   Clear
10:35 PM 62.6 °F 59.0 °F 88% 30.26 in 10.0 mi South 3.5 mph - N/A   Clear
10:55 PM 62.6 °F 57.2 °F 82% 30.26 in 10.0 mi Calm Calm - N/A   Clear
11:15 PM 59.0 °F 57.2 °F 94% 30.26 in 10.0 mi South 3.5 mph - N/A   Clear
11:35 PM 59.0 °F 55.4 °F 88% 30.25 in 10.0 mi SSE 3.5 mph - N/A   Clear
11:55 PM 60.8 °F 57.2 °F 88% 30.25 in 10.0 mi South 3.5 mph - N/A   Clear